This is the latest recevied weather packets stored in our database for station/object KC9NPJ-13. If no packets are shown the sender has not sent any weather packets the latest 10 day(s).
| Time | Temp. | Humidity | Pressure | Rain* | Wind** | Luminosity | Snow |
|---|---|---|---|---|---|---|---|
| 1778019240 | 10° C | 94% | 1009.2 hPa | 0.25 mm | - | - | - |
| 1778018940 | 10° C | 94% | 1009.3 hPa | 0.25 mm | - | - | - |
| 1778018640 | 10° C | 93% | 1009.3 hPa | 0 mm | - | - | - |
| 1778018340 | 10° C | 93% | 1009.5 hPa | 0 mm | - | - | - |
| 1778018039 | 10° C | 93% | 1009.6 hPa | 0 mm | - | - | - |
| 1778017740 | 10° C | 93% | 1009.6 hPa | 0.25 mm | - | - | - |
| 1778017440 | 10° C | 93% | 1009.5 hPa | 0.25 mm | - | - | - |
| 1778017140 | 10° C | 93% | 1009.4 hPa | 0.25 mm | - | - | - |
| 1778016840 | 10° C | 94% | 1009.4 hPa | 0.25 mm | - | - | - |
| 1778016540 | 10° C | 93% | 1009.3 hPa | 0.25 mm | - | - | - |
| 1778016240 | 10° C | 93% | 1009.3 hPa | 0.51 mm | - | - | - |
| 1778015940 | 10.56° C | 93% | 1009.4 hPa | 0.51 mm | - | - | - |
| 1778015640 | 10.56° C | 94% | 1009.4 hPa | 1.02 mm | - | - | - |
| 1778015340 | 10.56° C | 94% | 1009.3 hPa | 1.02 mm | - | - | - |
| 1778015040 | 10.56° C | 94% | 1009.2 hPa | 1.02 mm | - | - | - |
| 1778014740 | 10.56° C | 94% | 1009.3 hPa | 1.27 mm | - | - | - |
| 1778014440 | 10.56° C | 94% | 1009.3 hPa | 1.27 mm | - | - | - |
| 1778014140 | 10.56° C | 94% | 1009.4 hPa | 1.02 mm | - | - | - |
| 1778013840 | 10.56° C | 94% | 1009.5 hPa | 1.27 mm | - | - | - |
| 1778013540 | 10.56° C | 93% | 1009.4 hPa | 1.27 mm | - | - | - |
| 1778013240 | 10.56° C | 93% | 1009.4 hPa | 1.27 mm | - | - | - |
| 1778012940 | 10.56° C | 93% | 1009 hPa | 1.27 mm | - | - | - |
| 1778012640 | 10.56° C | 93% | 1009.5 hPa | 1.27 mm | - | - | - |
| 1778012340 | 10.56° C | 92% | 1009.5 hPa | 1.27 mm | - | - | - |
| 1778012040 | 11.11° C | 93% | 1009.3 hPa | 0.76 mm | - | - | - |
* Rain latest hour (hover to see other rain measurements)
** Current wind speed in m/s (hover to see current wind gust speed)